Dewpoint
14 14 15 15 15 15 15 15 15 15 15 15 14 14 14 14 14 15 15 15 14 13 13 13 13 13 13 14 14 15 15 15 15 15 14 14 13 13 13 13 13 12
13 14 15 15 15 15 15 15 15 15 15 15 15 15 15 15 15 15 15 15 14 13 13 13 13 13 13 13 14 15 15 15 15 15 15 15 15 14 14 14 14 13
13 14 15 15 15 15 15 15 15 15 15 15 15 15 16 15 15 15 15 15 14 14 14 13 13 13 13 14 14 14 15 14 14 14 14 15 15 15 14 14 14 14
13 14 14 14 14 14 14 14 15 15 15 15 15 15 15 15 15 15 15 15 14 14 14 14 13 13 13 14 13 13 14 14 13 13 13 14 14 14 14 13 13 14
12 14 14 14 14 14 14 14 14 14 15 15 15 15 15 15 15 15 14 14 15 15 15 14 14 14 14 14 13 13 13 13 13 13 13 13 13 13 13 13 13 14
12 13 13 13 13 14 14 13 13 14 14 15 15 15 15 15 15 14 14 14 15 15 16 15 15 15 15 15 14 13 13 13 13 13 13 13 13 13 13 13 13 13
11 12 13 13 12 13 13 13 13 14 14 15 15 14 14 14 14 14 13 14 14 15 16 16 16 16 16 16 14 13 13 14 13 13 13 13 13 13 13 14 14 13
11 12 12 12 12 12 12 13 14 14 14 14 14 14 13 14 14 14 14 14 15 15 16 16 16 16 16 15 15 15 15 14 14 13 13 13 13 13 13 14 14 14
10 11 11 12 12 11 12 12 13 14 14 14 14 13 13 13 14 14 15 15 16 16 16 16 15 15 15 15 14 15 15 15 15 15 14 14 14 14 13 14 14 14
11 10 11 11 11 11 12 12 13 13 14 14 14 13 13 14 14 15 15 15 16 16 16 15 15 15 15 15 15 15 15 16 16 16 16 16 15 15 15 15 15 15
12 10 10 10 11 11 11 12 12 13 13 13 13 13 14 14 14 15 15 15 16 16 16 16 16 16 16 16 15 15 16 16 16 16 16 16 16 16 15 15 16 16
13 12 10 10 10 11 11 12 12 12 13 13 13 13 14 14 15 15 16 16 16 16 16 16 16 16 16 16 16 16 16 16 16 16 16 16 16 16 16 15 16 16
15 14 12 10 10 10 11 12 12 12 13 13 12 13 14 15 15 16 16 16 16 16 16 16 16 16 16 16 16 16 16 16 16 16 16 16 16 16 16 16 15 16
14 15 13 11 10 10 10 11 11 12 12 13 13 13 13 15 15 16 16 16 16 16 16 16 16 16 16 16 16 16 16 16 16 15 16 15 15 15 15 15 15 15
14 14 14 12 11 10 10 10 10 11 12 13 13 13 13 14 15 15 16 16 16 16 16 16 16 15 15 15 15 15 15 15 15 15 15 15 15 15 15 15 15 15
14 14 14 12 11 11 11 10 10 11 12 12 13 13 13 14 15 15 16 16 16 16 16 16 15 15 15 15 15 15 15 15 15 15 15 15 15 15 15 15 15 15
14 14 14 13 12 11 11 11 10 11 11 12 13 14 14 15 15 16 16 16 16 16 16 15 15 15 15 14 14 14 14 14 14 14 14 14 15 15 15 15 15 15
16 16 15 15 14 13 13 12 12 12 14 15 15 15 15 16 16 16 16 16 16 16 16 15 15 15 15 14 14 14 14 14 14 14 14 14 14 14 14 14 15 15
16 17 17 16 16 16 16 15 14 14 15 16 16 16 16 16 16 16 16 16 16 16 16 16 15 15 15 15 15 14 14 14 14 13 13 13 13 13 13 14 14 14
15 16 16 16 16 16 17 17 16 15 16 16 16 16 16 15 14 15 15 15 15 16 16 15 15 15 15 15 15 15 15 14 14 14 13 13 13 13 13 14 14 14
15 15 16 16 16 14 16 17 17 16 16 16 16 16 16 15 15 15 15 15 15 15 15 15 15 15 15 15 15 15 15 15 14 14 14 14 13 14 14 14 14 14
15 14 15 16 17 15 15 16 16 16 16 15 15 15 16 15 15 16 16 15 15 15 15 15 15 15 15 15 15 15 15 15 15 15 15 14 14 14 14 14 14 14
15 14 15 16 17 16 16 16 16 16 16 15 15 15 16 15 15 15 15 15 16 16 16 16 16 16 16 16 16 16 16 16 15 15 15 15 15 15 15 14 15 14
15 15 16 16 16 16 16 16 16 16 16 16 16 16 16 16 15 16 16 16 16 16 16 16 16 16 16 16 16 16 15 15 15 15 15 15 16 16 15 15 15 15
16 16 16 16 16 16 16 16 16 16 16 16 16 15 15 15 15 16 16 16 16 16 16 16 16 16 16 16 16 16 16 15 15 15 16 16 15 16 16 16 16 16
16 16 16 16 16 16 16 16 15 15 15 15 15 14 15 15 14 15 15 15 15 15 15 15 15 15 15 15 15 15 15 15 15 15 15 15 15 15 15 15 15 15
Wind_Speed
18 17 16 15 14 13 12 11 10 9 9 9 9 9 8 7 7 8 8 9 9 9 9 8 8 8 9 9 9 9 10 9 9 9 9 9 9 8 8 8 8 8
18 17 16 15 15 13 12 11 10 9 9 9 9 9 8 7 7 8 9 9 10 9 9 9 9 9 9 9 9 10 10 11 10 10 10 10 9 9 9 9 9 9
18 17 16 15 14 12 12 11 10 9 9 9 9 9 8 8 8 8 9 10 10 10 9 9 9 9 9 10 10 11 11 11 11 11 11 11 10 10 9 9 9 10
17 16 15 15 13 12 11 12 11 10 10 10 10 10 9 9 9 9 10 10 10 9 9 9 9 9 10 11 11 11 11 11 10 11 11 11 11 11 11 11 10 10
17 17 16 15 14 12 12 13 12 11 11 11 11 11 11 11 10 11 11 10 9 9 9 9 9 10 10 11 11 11 10 10 10 10 10 11 11 11 11 11 10 10
17 17 16 16 15 15 14 13 12 12 12 12 12 12 12 11 11 11 11 10 9 9 9 9 10 10 10 10 10 10 9 9 10 10 10 10 10 10 10 11 11 11
18 17 17 17 16 16 16 14 13 13 12 13 13 12 12 12 11 10 10 10 10 10 10 10 10 10 10 10 10 10 9 9 10 10 10 10 10 10 10 10 11 11
18 17 17 17 17 17 17 16 14 13 12 13 13 13 12 11 11 10 9 9 9 10 10 10 10 10 10 10 10 10 9 9 10 10 10 10 11 11 10 11 11 11
19 18 18 17 17 17 17 17 16 14 13 12 12 12 11 11 11 10 10 9 9 9 10 10 10 10 10 10 10 10 10 9 9 9 9 9 10 10 10 11 12 12
20 19 19 19 18 18 17 17 17 16 14 13 12 12 12 11 11 11 11 11 10 9 9 9 9 9 9 10 10 10 9 9 8 9 9 9 9 10 10 11 12 13
20 20 21 20 19 19 18 17 17 17 16 14 13 13 13 12 12 12 12 12 11 10 9 8 8 8 9 9 10 9 9 8 9 9 9 10 10 11 11 12 13 13
20 20 21 21 20 20 19 18 17 17 16 16 15 14 13 13 13 13 13 13 12 10 10 9 9 9 9 9 9 10 9 9 9 10 10 10 11 11 12 13 13 14
20 20 21 21 20 20 19 18 17 17 17 16 16 15 14 14 13 13 13 13 13 12 11 10 10 10 10 10 10 10 10 10 10 11 11 11 12 12 13 14 14 15
21 20 20 20 20 19 19 19 18 17 16 16 16 16 16 15 14 14 13 14 14 14 12 12 12 12 12 11 11 11 12 12 12 12 13 13 13 13 13 14 14 15
20 20 20 20 20 19 20 19 18 17 17 16 16 16 16 16 15 14 14 14 14 14 13 13 13 13 13 13 13 14 14 14 14 14 15 15 15 14 14 14 15 15
20 20 19 20 21 20 20 20 19 18 17 17 16 16 16 16 15 15 14 14 14 14 14 14 14 14 14 14 15 16 16 16 16 16 17 17 17 16 16 16 16 16
24 21 20 20 21 20 20 20 20 19 18 17 16 16 16 17 17 16 16 15 15 14 14 14 14 14 15 15 16 17 18 19 19 18 19 19 19 19 18 18 18 18
25 23 22 20 20 20 19 19 19 18 18 17 17 17 18 18 18 18 17 16 16 16 16 16 16 16 15 16 17 17 18 20 20 20 20 21 21 21 20 20 20 20
27 24 22 20 20 19 19 18 19 20 20 19 18 18 19 19 19 18 19 18 18 18 18 19 19 19 19 19 20 20 20 20 20 21 21 22 23 23 23 23 22 22
28 26 22 20 21 20 18 19 21 21 21 20 18 18 18 17 16 17 19 19 19 19 20 21 22 22 22 22 23 23 23 23 23 23 23 23 24 24 24 25 24 24
25 26 23 21 22 21 18 17 17 17 18 19 17 16 16 16 15 16 18 19 19 19 20 22 23 23 23 24 24 24 24 24 25 25 25 26 26 25 25 26 26 26
23 24 23 21 19 19 17 15 14 14 16 17 16 16 15 15 14 16 17 18 18 18 20 21 22 23 23 24 24 24 24 24 24 24 25 26 27 27 27 28 28 28
24 23 22 20 16 15 15 14 13 13 14 15 16 15 14 13 13 15 17 18 19 19 20 21 23 24 25 25 25 25 25 25 25 26 26 27 28 28 28 29 28 29
22 20 17 15 13 12 13 14 14 12 11 12 13 14 14 14 14 16 17 18 20 20 21 22 23 24 25 26 26 26 26 26 27 27 27 28 29 30 30 30 31 31
14 13 13 13 13 12 12 13 12 10 9 9 11 13 14 14 14 15 16 18 19 19 20 20 21 22 23 24 24 25 25 25 26 27 27 28 29 31 31 31 32 33
11 10 10 10 8 7 7 8 8 8 7 7 8 10 11 12 14 15 16 18 18 17 16 16 16 17 18 18 18 18 18 18 19 20 21 22 24 25 26 27 27 28
Wind_Direction
228 232 237 244 245 244 244 246 245 243 246 251 253 249 246 246 242 242 245 245 246 246 244 244 243 244 247 248 252 254 256 260 265 266 264 265 267 269 270 272 274 275
226 230 235 240 241 242 242 241 238 237 240 245 247 244 241 238 233 236 241 243 247 250 248 249 248 247 249 249 251 253 255 257 260 260 259 259 261 264 267 269 272 275
224 227 231 235 237 240 240 236 231 230 234 238 236 235 234 233 232 235 239 242 246 250 251 252 251 251 250 250 253 257 258 258 258 257 257 257 257 261 265 268 272 274
224 226 228 231 233 236 234 230 229 229 232 235 234 231 230 229 232 235 237 241 244 247 251 251 250 252 253 253 258 260 259 258 258 259 259 258 258 261 267 270 272 273
227 228 229 230 230 231 231 230 230 231 232 235 234 232 231 231 235 238 239 241 243 247 250 249 250 255 259 261 264 263 258 257 259 262 262 261 261 264 269 271 270 269
229 230 231 232 230 228 229 233 234 233 234 233 232 233 234 236 238 240 241 242 244 246 248 250 251 256 261 265 266 263 259 259 261 263 263 263 264 265 269 272 271 270
229 231 232 233 233 230 231 232 232 232 234 233 234 236 236 238 238 239 240 241 241 241 244 248 250 253 259 263 264 262 262 264 264 264 264 267 268 267 269 271 271 272
228 229 231 233 234 233 231 231 229 229 232 233 234 236 236 236 236 236 235 234 235 239 243 247 248 250 254 257 259 259 262 266 266 266 266 269 271 271 270 269 270 274
227 227 229 230 232 233 231 230 229 227 230 231 233 235 236 236 235 234 232 230 234 240 243 246 247 247 249 253 257 258 259 261 261 264 267 270 273 274 271 268 270 273
225 224 225 226 229 231 230 230 229 228 229 231 232 233 234 235 237 236 234 234 238 242 244 247 248 247 250 253 254 255 256 256 256 260 266 270 273 274 272 269 269 272
223 224 224 225 226 227 228 230 230 230 230 230 231 231 231 232 234 235 235 236 236 238 242 246 249 252 254 254 252 252 255 258 260 263 268 273 275 276 275 274 272 272
225 226 225 225 225 226 226 227 229 230 231 231 230 229 229 230 231 232 234 233 233 235 239 243 249 255 256 253 251 253 258 263 267 271 274 277 279 281 281 279 276 274
230 231 230 227 227 228 227 227 230 233 233 232 231 230 230 230 232 234 235 234 233 234 237 242 248 253 255 255 255 259 263 268 271 276 280 283 284 286 285 283 280 277
233 236 235 231 230 231 231 230 231 234 236 234 232 232 232 232 233 237 239 239 237 238 242 247 250 253 255 256 259 265 268 272 275 277 280 284 286 290 289 287 282 278
229 234 235 234 232 232 232 232 232 234 237 237 235 234 235 234 234 237 242 244 244 245 248 253 257 258 258 259 261 265 269 272 275 277 279 281 283 286 288 288 286 282
229 231 231 230 230 230 231 232 232 234 237 238 238 237 236 234 234 237 242 246 249 252 257 263 267 266 263 260 260 262 265 269 272 275 276 276 278 280 282 286 288 288
234 234 233 230 228 228 230 231 232 234 236 237 237 236 235 234 234 237 240 243 248 254 260 266 269 269 269 267 264 263 265 268 272 275 274 273 273 275 277 281 285 287
242 237 233 231 229 229 229 229 229 229 230 230 231 232 233 234 237 241 242 243 247 253 258 263 267 271 275 276 275 274 272 273 275 276 276 273 272 272 274 276 279 281
250 246 239 232 228 231 234 229 224 222 223 224 228 231 233 236 241 244 245 246 249 254 259 263 266 270 273 275 278 279 279 280 280 279 277 275 273 272 272 273 275 277
247 247 246 236 226 228 238 235 226 221 223 226 230 235 238 242 246 248 250 252 255 258 261 264 266 268 270 272 275 277 278 279 279 280 279 278 276 274 273 273 273 274
240 239 245 244 231 227 236 242 236 229 228 230 233 240 246 249 251 254 256 257 258 262 266 267 267 268 270 272 274 275 276 276 276 276 276 276 276 275 274 273 273 273
234 232 242 248 238 229 233 243 249 245 240 239 242 249 253 253 257 262 264 263 261 263 265 267 268 269 271 272 273 274 275 275 275 274 274 273 273 272 272 272 272 272
228 228 238 245 241 236 236 241 246 248 251 251 251 253 254 256 262 267 267 265 262 261 263 266 269 272 273 274 274 273 274 274 274 274 274 274 273 272 272 273 273 274
226 227 231 236 239 235 230 233 240 247 256 259 254 252 254 257 262 265 265 265 264 264 264 267 270 273 273 273 273 272 272 272 273 273 273 272 272 272 272 273 274 274
215 215 214 220 229 229 223 228 238 244 252 257 255 255 256 257 260 264 266 268 268 267 268 270 272 274 275 276 276 276 275 275 275 275 274 274 274 274 274 275 275 275
161 165 172 181 191 193 193 207 226 238 246 248 243 245 251 256 261 265 266 268 269 270 272 274 277 280 283 285 287 287 287 285 283 283 283 283 283 282 282 282 282 281
Height
1589 1591 1592 1593 1594 1595 1596 1597 1598 1599 1600 1600 1601 1602 1602 1603 1603 1604 1604 1605 1605 1606 1606 1607 1607 1607 1608 1608 1609 1609 1609 1609 1610 1610 1610 1610 1610 1610 1610 1610 1610 1610
1588 1589 1591 1592 1593 1594 1595 1596 1597 1597 1598 1599 1600 1601 1601 1602 1602 1603 1603 1604 1604 1605 1605 1606 1606 1607 1607 1607 1608 1608 1608 1609 1609 1609 1609 1609 1609 1609 1609 1609 1609 1609
1587 1588 1590 1591 1592 1593 1594 1595 1595 1596 1597 1598 1599 1600 1600 1601 1601 1602 1602 1603 1603 1604 1604 1605 1605 1606 1606 1607 1607 1607 1608 1608 1608 1608 1608 1608 1608 1608 1608 1608 1608 1608
1585 1587 1588 1590 1591 1592 1592 1593 1594 1595 1596 1597 1598 1598 1599 1600 1600 1600 1601 1602 1602 1603 1603 1604 1604 1604 1605 1606 1606 1606 1607 1607 1607 1607 1607 1607 1607 1607 1607 1607 1607 1607
1584 1585 1587 1588 1589 1590 1591 1592 1593 1594 1594 1595 1596 1597 1598 1598 1599 1599 1600 1601 1601 1602 1602 1603 1603 1603 1604 1604 1605 1605 1605 1606 1606 1606 1606 1606 1606 1606 1606 1606 1606 1606
1582 1584 1585 1586 1587 1589 1590 1591 1592 1592 1593 1594 1595 1596 1597 1597 1598 1598 1599 1600 1600 1601 1601 1602 1602 1603 1603 1603 1604 1604 1604 1605 1605 1605 1605 1605 1605 1605 1605 1605 1605 1605
1581 1582 1583 1585 1586 1587 1588 1589 1590 1591 1592 1593 1594 1595 1595 1596 1597 1597 1598 1598 1599 1600 1600 1601 1601 1602 1602 1602 1602 1603 1603 1604 1604 1604 1604 1604 1604 1604 1604 1604 1604 1604
1579 1580 1581 1583 1584 1585 1587 1588 1589 1590 1591 1592 1593 1594 1594 1595 1596 1596 1597 1597 1598 1599 1599 1600 1600 1600 1601 1601 1601 1602 1602 1603 1603 1603 1603 1603 1603 1603 1603 1603 1603 1603
1577 1578 1580 1581 1582 1584 1585 1586 1587 1588 1589 1590 1591 1592 1593 1594 1594 1595 1596 1596 1597 1598 1598 1598 1599 1599 1600 1600 1600 1601 1601 1601 1602 1602 1602 1602 1602 1602 1602 1602 1602 1602
1575 1577 1578 1579 1580 1582 1583 1585 1586 1587 1588 1589 1590 1591 1591 1592 1593 1594 1595 1595 1596 1596 1597 1597 1598 1598 1598 1599 1599 1599 1600 1600 1600 1601 1601 1601 1601 1601 1601 1601 1601 1601
1573 1575 1576 1577 1578 1580 1581 1583 1584 1585 1586 1587 1588 1589 1590 1591 1592 1592 1593 1594 1595 1595 1596 1596 1597 1597 1597 1597 1598 1598 1598 1599 1599 1599 1599 1600 1600 1600 1600 1600 1599 1599
1571 1573 1574 1575 1576 1578 1579 1581 1582 1583 1584 1585 1586 1587 1588 1589 1590 1591 1592 1593 1593 1594 1595 1595 1596 1596 1596 1596 1597 1597 1597 1598 1598 1598 1598 1598 1598 1598 1598 1598 1598 1598
1569 1571 1572 1574 1575 1576 1578 1579 1581 1582 1583 1584 1585 1586 1587 1588 1589 1590 1590 1591 1592 1593 1593 1594 1594 1595 1595 1595 1596 1596 1596 1596 1596 1596 1596 1596 1596 1596 1596 1596 1596 1596
1568 1570 1571 1572 1574 1575 1577 1578 1579 1580 1581 1582 1583 1584 1585 1586 1587 1588 1589 1590 1591 1591 1592 1593 1593 1593 1594 1594 1594 1595 1595 1595 1595 1595 1595 1594 1594 1594 1594 1594 1594 1594
1566 1568 1569 1571 1572 1573 1575 1576 1578 1579 1580 1581 1582 1583 1584 1585 1586 1587 1587 1588 1589 1590 1591 1591 1591 1592 1592 1592 1593 1593 1593 1593 1593 1593 1593 1593 1593 1592 1592 1592 1592 1592
1565 1566 1567 1569 1570 1571 1573 1574 1576 1577 1578 1580 1581 1582 1583 1584 1585 1585 1586 1587 1588 1588 1589 1590 1590 1590 1590 1590 1591 1591 1591 1591 1591 1591 1591 1591 1590 1590 1590 1590 1590 1590
1562 1564 1565 1566 1568 1569 1571 1573 1574 1576 1577 1578 1579 1580 1581 1582 1583 1584 1585 1585 1586 1587 1587 1588 1588 1588 1588 1588 1588 1588 1588 1588 1588 1589 1588 1588 1588 1588 1588 1588 1588 1588
1560 1561 1563 1564 1566 1567 1569 1571 1572 1574 1575 1576 1577 1578 1579 1580 1581 1582 1583 1583 1584 1584 1585 1585 1585 1585 1586 1586 1586 1586 1586 1586 1586 1586 1586 1586 1586 1586 1586 1586 1585 1585
1559 1560 1561 1562 1562 1564 1567 1569 1570 1571 1572 1573 1575 1576 1577 1578 1580 1581 1581 1581 1582 1582 1583 1583 1583 1583 1583 1584 1583 1584 1584 1584 1584 1584 1583 1583 1583 1583 1583 1583 1583 1583
1556 1558 1560 1560 1559 1561 1565 1567 1567 1568 1569 1571 1573 1574 1575 1576 1578 1579 1579 1579 1580 1580 1580 1580 1581 1581 1581 1581 1581 1581 1581 1581 1581 1581 1581 1580 1580 1580 1580 1580 1580 1580
1553 1555 1558 1558 1556 1558 1563 1566 1566 1566 1567 1569 1571 1573 1574 1574 1576 1576 1577 1577 1577 1577 1577 1577 1578 1578 1578 1578 1578 1578 1578 1578 1578 1578 1578 1577 1577 1577 1577 1577 1577 1576
1550 1552 1556 1557 1555 1555 1560 1565 1566 1566 1566 1568 1569 1570 1571 1572 1572 1573 1574 1574 1574 1574 1575 1575 1575 1575 1575 1575 1575 1575 1575 1574 1574 1574 1574 1574 1574 1574 1574 1573 1573 1573
1548 1550 1553 1554 1554 1555 1559 1563 1564 1563 1564 1566 1567 1568 1568 1569 1569 1570 1571 1572 1572 1572 1572 1572 1572 1572 1572 1572 1572 1571 1571 1571 1571 1570 1570 1570 1570 1570 1570 1570 1569 1569
1546 1548 1550 1551 1553 1556 1559 1561 1561 1561 1562 1564 1565 1565 1565 1566 1567 1567 1568 1569 1569 1570 1570 1569 1569 1569 1568 1568 1568 1568 1568 1567 1567 1566 1566 1566 1566 1566 1565 1565 1565 1565
1544 1546 1548 1550 1553 1555 1557 1558 1558 1559 1561 1562 1563 1563 1563 1563 1564 1565 1565 1566 1566 1567 1567 1567 1566 1565 1565 1565 1564 1564 1564 1563 1563 1562 1562 1562 1561 1561 1561 1561 1561 1560
1543 1545 1547 1549 1552 1554 1555 1556 1556 1557 1559 1561 1561 1561 1561 1561 1561 1562 1562 1563 1564 1564 1564 1564 1563 1563 1562 1562 1562 1561 1561 1560 1560 1559 1558 1558 1557 1557 1556 1556 1556 1556